Torna al catalogo

POQUITO

AttivoScienzaSSO
NORAD 62691·PAYLOAD·🇱🇺 Luxembourg
Questo nome del satellite non è ancora stato confermato da fonti ufficiali.

Lanciato Jan 14, 2025 da Vandenberg Space Force Base

Loading…

Prossimi Passaggi (prossime 24 ore)

TLE

AggiornatoSource: Space-Track

Epoca: Sep 13, 2026, 18:49 UTC

1 62691U 25009CL  26256.78433350  .00044262  00000-0  70816-3 0  9997
2 62691  97.3734 343.8988 0000939 253.6254 106.4896 15.53015975 92916

Traccia POQUITO in tempo reale con AllMySat

Download on the App Store